Martha's Vineyard, MA

5:22 PM EDT on September 20, 2017 (GMT -0400)
Martha's Vineyard

Weather History for KMVY - February, 2012

Change the Weather History Date:

Friday, February 3, 2012

  Actual Average Record
Temperature  
Mean Temperature 34 °F -  
Max Temperature 39 °F 39 °F 55 °F (1999)
Min Temperature 28 °F 24 °F -9 °F (1961)
Degree Days  
Heating Degree Days 32    
Moisture  
Dew Point 18 °F    
Average Humidity 54    
Maximum Humidity 70    
Minimum Humidity 28    
Precipitation  
Precipitation 0.00 in - - ()
Sea Level Pressure  
Sea Level Pressure 30.27 in    
Wind  
Wind Speed 12 mph (NNW)    
Max Wind Speed 17 mph    
Max Gust Speed 25 mph    
Visibility 10 miles    
Events      
Averages and records for this station are not official NWS values.
T = Trace of Precipitation, MM = Missing Value Source: NWS Daily Summary

Daily Weather History Graph

Daily Weather History Graph

Search for Another Location

Airport or City:

Trip Planner

Search our weather history database for the weather conditions in past years. The results will help you decide how hot, cold, wet, or windy it might be!

Date:

Astronomy

Feb. 03, 2012 Rise Set
Actual Time 6:52 AM EST 5:00 PM EST
Civil Twilight 6:23 AM EST 5:29 PM EST
Nautical Twilight 5:50 AM EST 6:02 PM EST
Astronomical Twilight 5:17 AM EST 6:35 PM EST
Moon 12:57 PM EST (2/3) 3:26 AM EST (2/3)
Length of Visible Light 11h 06m
Length of Day
10h 08m
Waxing Gibbous, 81% of the Moon is Illuminated
Feb 3
Waxing Gibbous
Feb 7
Full
Feb 14
Last Quarter
Feb 21
New
Feb 29
First Quarter

Hourly Weather History & Observations

Time (EST) Temp. Windchill Dew Point Humidity Pressure Visibility Wind Dir Wind Speed Gust Speed Precip Events Conditions
12:53 AM 35.1 °F 26.4 °F 25.0 °F 67% 30.16 in 10.0 mi North 12.7 mph 21.9 mph N/A   Overcast
1:26 AM 35.6 °F 27.5 °F 24.8 °F 65% 30.17 in 10.0 mi North 11.5 mph - N/A   Overcast
1:53 AM 35.1 °F 26.4 °F 24.1 °F 64% 30.18 in 10.0 mi North 12.7 mph - N/A   Overcast
2:38 AM 33.8 °F 23.2 °F 24.8 °F 70% 30.18 in 10.0 mi North 17.3 mph 23.0 mph N/A   Overcast
2:53 AM 34.0 °F 23.8 °F 24.1 °F 67% 30.19 in 10.0 mi North 16.1 mph 25.3 mph N/A   Overcast
3:04 AM 33.8 °F 24.3 °F 24.8 °F 70% 30.19 in 10.0 mi North 13.8 mph 20.7 mph N/A   Overcast
3:34 AM 33.8 °F 24.8 °F 24.8 °F 70% 30.21 in 10.0 mi North 12.7 mph - N/A   Overcast
3:53 AM 33.1 °F 25.5 °F 24.1 °F 70% 30.22 in 10.0 mi North 9.2 mph 21.9 mph N/A   Overcast
4:02 AM 33.8 °F 24.8 °F 23.0 °F 65% 30.21 in 10.0 mi North 12.7 mph 19.6 mph N/A   Overcast
4:51 AM 33.8 °F 25.3 °F 21.2 °F 60% 30.24 in 10.0 mi North 11.5 mph 20.7 mph N/A   Overcast
4:53 AM 33.1 °F 24.9 °F 21.0 °F 61% 30.24 in 10.0 mi North 10.4 mph 20.7 mph N/A   Overcast
5:14 AM 33.8 °F 25.8 °F 19.4 °F 56% 30.25 in 10.0 mi North 10.4 mph - N/A   Overcast
5:27 AM 33.8 °F 24.3 °F 21.2 °F 60% 30.26 in 10.0 mi North 13.8 mph - N/A   Overcast
5:53 AM 32.0 °F 22.5 °F 19.9 °F 61% 30.27 in 10.0 mi North 12.7 mph - N/A   Overcast
6:03 AM 32.0 °F 21.6 °F 19.4 °F 60% 30.28 in 10.0 mi NNW 15.0 mph 24.2 mph N/A   Overcast
6:53 AM 32.0 °F 24.2 °F 19.9 °F 61% 30.30 in 10.0 mi North 9.2 mph 18.4 mph N/A   Overcast
7:31 AM 32.0 °F 23.0 °F 19.4 °F 60% 30.32 in 10.0 mi NNW 11.5 mph 18.4 mph N/A   Overcast
7:53 AM 32.0 °F 25.6 °F 19.9 °F 61% 30.33 in 10.0 mi North 6.9 mph - N/A   Overcast
8:53 AM 33.1 °F 24.4 °F 19.0 °F 56% 30.34 in 10.0 mi NNW 11.5 mph - N/A   Overcast
9:40 AM 33.8 °F 23.5 °F 19.4 °F 56% 30.34 in 10.0 mi NNW 16.1 mph - N/A   Scattered Clouds
9:53 AM 33.1 °F 24.4 °F 18.0 °F 54% 30.34 in 10.0 mi NNW 11.5 mph - N/A   Scattered Clouds
10:53 AM 35.1 °F 28.6 °F 18.0 °F 50% 30.35 in 10.0 mi NW 8.1 mph - N/A   Scattered Clouds
11:53 AM 35.1 °F 26.4 °F 17.1 °F 48% 30.33 in 10.0 mi North 12.7 mph - N/A   Clear
12:53 PM 36.0 °F 28.0 °F 16.0 °F 44% 30.31 in 10.0 mi NNW 11.5 mph - N/A   Clear
1:53 PM 37.0 °F 29.3 °F 12.9 °F 37% 30.30 in 10.0 mi NW 11.5 mph - N/A   Clear
2:53 PM 39.0 °F 31.4 °F 9.0 °F 29% 30.29 in 10.0 mi NNW 12.7 mph - N/A   Clear
3:53 PM 39.0 °F 32.3 °F 8.1 °F 28% 30.29 in 10.0 mi NW 10.4 mph - N/A   Clear
4:53 PM 36.0 °F 32.1 °F 10.0 °F 34% 30.30 in 10.0 mi NNW 4.6 mph - N/A   Clear
5:53 PM 35.1 °F 26.9 °F 10.9 °F 37% 30.33 in 10.0 mi NNW 11.5 mph - N/A   Clear
6:53 PM 36.0 °F 29.0 °F 12.0 °F 37% 30.33 in 10.0 mi NNW 9.2 mph - N/A   Clear
7:53 PM 34.0 °F 29.8 °F 14.0 °F 44% 30.33 in 10.0 mi WNW 4.6 mph - N/A   Clear
8:53 PM 28.9 °F 25.2 °F 14.0 °F 54% 30.32 in 10.0 mi WSW 3.5 mph - N/A   Clear
9:53 PM 34.0 °F 28.8 °F 17.1 °F 50% 30.32 in 10.0 mi West 5.8 mph - N/A   Clear
10:53 PM 37.0 °F 32.4 °F 19.9 °F 50% 30.30 in 10.0 mi West 5.8 mph - N/A   Clear
11:53 PM 37.9 °F 32.1 °F 21.0 °F 51% 30.28 in 10.0 mi West 8.1 mph - N/A   Clear